sat.trackr.live / text

‹ back to catalog

STARLINK-6285

NORAD 56405 · 2023-061AH

PAYLOAD ACTIVE UNKNOWN

§ Identity

Operator
Country
US
Launch date
2023-05-04
Launch site
AFETR
Launch vehicle
Mass (kg)
RCS (m²)

Purposes: comms

External: N2YO · Heavens-Above · Gunter

§ Orbital elements

Epoch: 2026-09-20T11:11:07.284192Z

Period
94.27 min
Inclination
43.0036°
Eccentricity
0.0001684
Mean motion
15.27575878 rev/d
Perigee alt
481.9 km
Apogee alt
484.2 km
Semi-major
6,861.2 km
B*
3.3761e-5
RAAN
167.0025°
Arg perigee
261.8399°
Mean anomaly
98.2261°
Rev number
18,666

§ Raw data

STARLINK-62851 56405U 23061AH  26263.46605653  .00000667  00000+0  33761-4 0  99982 56405  43.0036 167.0025 0001684 261.8399  98.2261 15.27575878186666

JSON: /api/v1/satellites/56405 · /tle

For live sub-satellite position, see the globe view (requires WebGL).

§ Visibility from observer

Set your observer location to see the next 7 days of passes ≥ 10°. The values pass through the URL so the page stays shareable.

No JS? Fill the form by hand. The geolocation button needs JavaScript.